• Em Portugal
  • Lista de países
  • Para 7 dias
  • Temperatura da água
  • Mapas de satélite
  • Mapa do tempo
  • Widgets de tempo
  • user-avatar
    Iniciar Sessão

    Previsão horária em Bolshoe Ivanovo

    Hoje, 22 Maio, Terça-feira

    Tempo Temperatura Precipitação Vento Pressão Humidade
    00:00 +12°C° 0 mm 1 m/s 763 mmHg 78%
    01:00 +12°C° 0 mm 1 m/s 763 mmHg 80%
    02:00 +11°C° 0 mm 1 m/s 763 mmHg 81%
    03:00 +11°C° 0 mm 1 m/s 763 mmHg 81%
    04:00 +11°C° 0 mm 1 m/s 763 mmHg 80%
    05:00 +11°C° 0 mm 1 m/s 763 mmHg 80%
    06:00 +13°C° 0 mm 2 m/s 762 mmHg 73%
    07:00 +15°C° 0 mm 2 m/s 762 mmHg 66%
    08:00 +17°C° 0 mm 2 m/s 762 mmHg 60%
    09:00 +18°C° 0 mm 3 m/s 762 mmHg 55%
    10:00 +19°C° 0 mm 3 m/s 761 mmHg 50%
    11:00 +20°C° 0 mm 4 m/s 761 mmHg 45%
    12:00 +21°C° 0 mm 4 m/s 760 mmHg 45%
    13:00 +21°C° 0 mm 3 m/s 760 mmHg 44%
    14:00 +21°C° 0 mm 3 m/s 760 mmHg 44%
    15:00 +20°C° 0,2 mm 3 m/s 759 mmHg 53%
    16:00 +19°C° 0,2 mm 3 m/s 759 mmHg 62%
    17:00 +18°C° 0,2 mm 2 m/s 759 mmHg 72%
    18:00 +16°C° 0,2 mm 2 m/s 759 mmHg 79%
    19:00 +15°C° 0,2 mm 2 m/s 758 mmHg 86%
    20:00 +14°C° 0,2 mm 1 m/s 758 mmHg 92%
    21:00 +14°C° 0 mm 1 m/s 758 mmHg 94%
    22:00 +13°C° 0 mm 1 m/s 758 mmHg 95%
    23:00 +13°C° 0 mm 1 m/s 758 mmHg 96%

    Amanhã, 23 Maio, Quarta-feira

    Tempo Temperatura Precipitação Vento Pressão Humidade
    00:00 +13°C° 0 mm 1 m/s 758 mmHg 97%
    01:00 +12°C° 0 mm 1 m/s 758 mmHg 97%
    02:00 +12°C° 0 mm 1 m/s 758 mmHg 98%
    03:00 +12°C° 0 mm 1 m/s 758 mmHg 98%
    04:00 +12°C° 0 mm 1 m/s 758 mmHg 98%
    05:00 +12°C° 0 mm 1 m/s 758 mmHg 98%
    06:00 +14°C° 0 mm 1 m/s 758 mmHg 92%
    07:00 +15°C° 0 mm 1 m/s 758 mmHg 87%
    08:00 +18°C° 0 mm 1 m/s 758 mmHg 81%
    09:00 +19°C° 0,2 mm 1 m/s 758 mmHg 75%
    10:00 +21°C° 0,2 mm 1 m/s 758 mmHg 68%
    11:00 +22°C° 0,2 mm 1 m/s 758 mmHg 62%
    12:00 +22°C° 0,8 mm 1 m/s 758 mmHg 64%
    13:00 +22°C° 0,8 mm 1 m/s 757 mmHg 65%
    14:00 +21°C° 0,8 mm 1 m/s 757 mmHg 67%
    15:00 +21°C° 0,4 mm 1 m/s 757 mmHg 69%
    16:00 +21°C° 0,4 mm 1 m/s 758 mmHg 70%
    17:00 +20°C° 0,4 mm 2 m/s 758 mmHg 72%
    18:00 +19°C° 0,3 mm 2 m/s 758 mmHg 78%
    19:00 +18°C° 0,3 mm 1 m/s 758 mmHg 84%
    20:00 +16°C° 0,3 mm 1 m/s 758 mmHg 91%
    21:00 +15°C° 0 mm 1 m/s 759 mmHg 92%
    22:00 +14°C° 0 mm 1 m/s 759 mmHg 93%
    23:00 +13°C° 0 mm 2 m/s 759 mmHg 94%

    Depois de amanhã, 24 Maio, Quinta-feira

    Tempo Temperatura Precipitação Vento Pressão Humidade
    00:00 +12°C° 0 mm 2 m/s 759 mmHg 94%
    01:00 +12°C° 0 mm 2 m/s 760 mmHg 95%
    02:00 +12°C° 0 mm 2 m/s 760 mmHg 95%
    03:00 +12°C° 0 mm 1 m/s 760 mmHg 94%
    04:00 +12°C° 0 mm 1 m/s 760 mmHg 93%
    05:00 +12°C° 0 mm 1 m/s 760 mmHg 92%
    06:00 +13°C° 0 mm 2 m/s 761 mmHg 87%
    07:00 +15°C° 0 mm 2 m/s 761 mmHg 81%
    08:00 +17°C° 0 mm 2 m/s 761 mmHg 75%
    09:00 +19°C° 0 mm 3 m/s 761 mmHg 68%
    10:00 +20°C° 0 mm 3 m/s 761 mmHg 60%
    11:00 +22°C° 0 mm 4 m/s 761 mmHg 53%
    12:00 +22°C° 0 mm 4 m/s 762 mmHg 51%
    13:00 +22°C° 0 mm 4 m/s 762 mmHg 49%
    14:00 +22°C° 0 mm 5 m/s 762 mmHg 48%
    15:00 +21°C° 0 mm 5 m/s 762 mmHg 50%
    16:00 +20°C° 0 mm 5 m/s 762 mmHg 52%
    17:00 +20°C° 0 mm 4 m/s 763 mmHg 54%
    18:00 +18°C° 0 mm 4 m/s 763 mmHg 60%
    19:00 +16°C° 0 mm 3 m/s 763 mmHg 65%
    20:00 +13°C° 0 mm 3 m/s 764 mmHg 70%
    21:00 +12°C° 0 mm 3 m/s 764 mmHg 70%
    22:00 +11°C° 0 mm 3 m/s 765 mmHg 70%
    23:00 +10°C° 0 mm 3 m/s 765 mmHg 69%

    25 Maio, Sexta-feira

    Tempo Temperatura Precipitação Vento Pressão Humidade
    00:00 +9°C° 0 mm 3 m/s 766 mmHg 71%
    01:00 +8°C° 0 mm 2 m/s 766 mmHg 73%
    02:00 +7°C° 0 mm 2 m/s 766 mmHg 74%
    03:00 +7°C° 0 mm 2 m/s 767 mmHg 73%
    04:00 +7°C° 0 mm 2 m/s 767 mmHg 71%
    05:00 +7°C° 0 mm 2 m/s 767 mmHg 70%
    06:00 +9°C° 0 mm 2 m/s 767 mmHg 63%
    07:00 +12°C° 0 mm 2 m/s 768 mmHg 56%
    08:00 +14°C° 0 mm 2 m/s 768 mmHg 49%
    09:00 +15°C° 0 mm 2 m/s 768 mmHg 45%
    10:00 +16°C° 0 mm 2 m/s 768 mmHg 41%
    11:00 +18°C° 0 mm 2 m/s 768 mmHg 37%
    12:00 +18°C° 0 mm 2 m/s 767 mmHg 36%
    13:00 +19°C° 0 mm 2 m/s 767 mmHg 36%
    14:00 +20°C° 0 mm 2 m/s 767 mmHg 35%
    15:00 +20°C° 0 mm 2 m/s 767 mmHg 37%
    16:00 +20°C° 0 mm 2 m/s 767 mmHg 40%
    17:00 +20°C° 0 mm 2 m/s 767 mmHg 42%
    18:00 +18°C° 0 mm 2 m/s 767 mmHg 50%
    19:00 +16°C° 0 mm 1 m/s 767 mmHg 58%
    20:00 +14°C° 0 mm 1 m/s 767 mmHg 66%
    21:00 +13°C° 0 mm 1 m/s 767 mmHg 68%
    22:00 +12°C° 0 mm 1 m/s 768 mmHg 69%
    23:00 +11°C° 0 mm 1 m/s 768 mmHg 70%

    26 Maio, Sábado

    Tempo Temperatura Precipitação Vento Pressão Humidade
    00:00 +10°C° 0 mm 1 m/s 768 mmHg 71%
    01:00 +10°C° 0 mm 1 m/s 769 mmHg 72%
    02:00 +10°C° 0 mm 1 m/s 769 mmHg 73%
    03:00 +10°C° 0 mm 1 m/s 769 mmHg 74%
    04:00 +10°C° 0 mm 1 m/s 769 mmHg 74%
    05:00 +10°C° 0 mm 1 m/s 770 mmHg 74%
    06:00 +13°C° 0 mm 2 m/s 770 mmHg 67%
    07:00 +15°C° 0 mm 2 m/s 769 mmHg 60%
    08:00 +17°C° 0 mm 2 m/s 769 mmHg 53%
    09:00 +18°C° 0 mm 2 m/s 769 mmHg 48%
    10:00 +20°C° 0 mm 2 m/s 769 mmHg 44%
    11:00 +21°C° 0 mm 3 m/s 769 mmHg 40%
    12:00 +21°C° 0 mm 3 m/s 769 mmHg 39%
    13:00 +22°C° 0 mm 3 m/s 768 mmHg 39%
    14:00 +22°C° 0 mm 3 m/s 768 mmHg 38%
    15:00 +23°C° 0 mm 2 m/s 768 mmHg 41%
    16:00 +23°C° 0 mm 2 m/s 767 mmHg 43%
    17:00 +23°C° 0 mm 2 m/s 767 mmHg 45%
    18:00 +20°C° 0 mm 2 m/s 767 mmHg 54%
    19:00 +18°C° 0 mm 2 m/s 767 mmHg 63%
    20:00 +16°C° 0 mm 2 m/s 767 mmHg 72%
    21:00 +15°C° 0 mm 2 m/s 767 mmHg 74%
    22:00 +14°C° 0 mm 2 m/s 767 mmHg 77%
    23:00 +13°C° 0 mm 2 m/s 767 mmHg 80%

    27 Maio, Domingo

    Tempo Temperatura Precipitação Vento Pressão Humidade
    00:00 +13°C° 0 mm 2 m/s 767 mmHg 81%
    01:00 +12°C° 0 mm 2 m/s 767 mmHg 82%
    02:00 +12°C° 0 mm 2 m/s 767 mmHg 84%
    03:00 +12°C° 0 mm 2 m/s 767 mmHg 83%
    04:00 +12°C° 0 mm 2 m/s 767 mmHg 82%
    05:00 +12°C° 0 mm 2 m/s 767 mmHg 82%
    06:00 +14°C° 0 mm 2 m/s 767 mmHg 76%
    07:00 +16°C° 0 mm 2 m/s 766 mmHg 69%
    08:00 +18°C° 0 mm 2 m/s 766 mmHg 63%
    09:00 +20°C° 0 mm 3 m/s 766 mmHg 59%
    10:00 +21°C° 0 mm 3 m/s 766 mmHg 54%
    11:00 +22°C° 0 mm 3 m/s 766 mmHg 50%
    12:00 +24°C° 0 mm 3 m/s 765 mmHg 49%
    13:00 +24°C° 0 mm 3 m/s 765 mmHg 48%
    14:00 +25°C° 0 mm 3 m/s 765 mmHg 46%
    15:00 +25°C° 0 mm 3 m/s 764 mmHg 48%
    16:00 +25°C° 0 mm 3 m/s 764 mmHg 49%
    17:00 +25°C° 0 mm 3 m/s 764 mmHg 50%
    18:00 +23°C° 0 mm 2 m/s 764 mmHg 58%
    19:00 +20°C° 0 mm 2 m/s 764 mmHg 66%
    20:00 +19°C° 0 mm 1 m/s 764 mmHg 74%
    21:00 +18°C° 0 mm 1 m/s 764 mmHg 76%
    22:00 +16°C° 0 mm 1 m/s 764 mmHg 77%
    23:00 +15°C° 0 mm 1 m/s 764 mmHg 79%
    Mostrar mais